MSC Fortunate — 3FLG6 — position and weather

sailwx.info

Track history (hours):
 
Tides and Currents Weather Stations Pressure Air Temp Water Temp Dewpoint Dewpoint Depression Visibility Wind Speed Wind Dir Waves Ship Positions

MSC Fortunate

Last reported at 2014-Jul-30 21:05 UTC. Time now 2014-Jul-31 01:19 UTC.
Position N 37°12' E 004°32'.

Length 275 m; draft 13.3 m.

Type: Ship. MMSI: 356708000.

Date/timePositionNaut miles runAvg speedWind from/ knotsBaromVisibWave heightAir tempDewpointWater temp
2014-Jul-30 21:05N 37°12' E 004°32'1317.8
2014-Jul-30 20:23N 37°10' E 004°16'1517.9
2014-Jul-30 19:33N 37°08' E 003°58'1818.0
2014-Jul-30 18:32N 37°05' E 003°35'1817.8
2014-Jul-30 17:33N 37°03' E 003°13'1818.3
2014-Jul-30 16:33N 36°60' E 002°50'1817.8
2014-Jul-30 15:33N 36°57' E 002°28'1717.5
2014-Jul-30 14:33N 36°55' E 002°07'1817.6
2014-Jul-30 13:33N 36°52' E 001°45'1817.7
2014-Jul-30 12:33N 36°49' E 001°23'2317.8
2014-Jul-30 11:16N 36°46' E 000°55'3017.4
2014-Jul-30 09:32N 36°41' E 000°18'1817.5
2014-Jul-30 08:31N 36°38' W 000°04'25618.1
2014-Jul-29 18:24N 35°59' W 005°18'14618.1
2014-Jul-29 10:20N 36°21' W 008°17'1417.6
2014-Jul-29 09:33N 36°24' W 008°33'1817.4
2014-Jul-29 08:33N 36°28' W 008°54'1717.4
2014-Jul-29 07:33N 36°33' W 009°15'2017.9
2014-Jul-29 06:28N 36°47' W 009°32'1618.0
2014-Jul-29 05:34N 37°02' W 009°37'1818.1
2014-Jul-29 04:33N 37°20' W 009°42'1918.2
2014-Jul-29 03:32N 37°38' W 009°48'1817.9
2014-Jul-29 02:33N 37°55' W 009°52'1817.7
2014-Jul-29 01:33N 38°13' W 009°57'1917.8
2014-Jul-29 00:29N 38°31' W 010°02'1617.6
2014-Jul-28 23:34N 38°47' W 010°06'76316.1
2014-Jul-27 00:15N 49°54' W 001°28'1420.2
2014-Jul-26 23:33N 49°48' W 001°08'1818.5
2014-Jul-26 22:33N 49°40' W 000°42'1717.3
2014-Jul-26 21:34N 49°34' W 000°17'1414.3
2014-Jul-26 20:34N 49°29' E 000°04'3 3.3
2014-Jul-26 19:31N 49°28' E 000°08'0 0.0
2014-Jul-26 18:34N 49°28' E 000°08'0 0.0
2014-Jul-26 17:34N 49°28' E 000°08'0 0.0
2014-Jul-26 16:28N 49°28' E 000°08'0 0.0
2014-Jul-26 15:34N 49°28' E 000°08'0 0.0
2014-Jul-26 14:31N 49°28' E 000°08'0 0.0
2014-Jul-26 13:34N 49°28' E 000°08'0 0.0
2014-Jul-26 12:34N 49°28' E 000°08'0 0.0
2014-Jul-26 11:28N 49°28' E 000°08'0 0.0
2014-Jul-26 10:33N 49°28' E 000°08'0 0.2
2014-Jul-26 09:34N 49°28' E 000°08'9 9.3
2014-Jul-26 08:33N 49°31' W 000°05'9 9.4
2014-Jul-26 07:33N 49°35' W 000°18'1312.8
2014-Jul-26 06:33N 49°48' W 000°22'4914.8
2014-Jul-26 03:14N 50°31' E 000°16'1419.9
2014-Jul-26 02:33N 50°35' E 000°36'1919.1
2014-Jul-26 01:33N 50°46' E 001°01'1817.6
2014-Jul-26 00:33N 50°58' E 001°22'1615.9
2014-Jul-25 23:33N 51°09' E 001°40'1716.8
2014-Jul-25 22:34N 51°22' E 001°57'1615.8
2014-Jul-25 21:33N 51°22' E 002°22'1616.4
2014-Jul-25 20:33N 51°25' E 002°48'1716.8
2014-Jul-25 19:33N 51°25' E 003°15'1515.5
2014-Jul-25 18:34N 51°27' E 003°39'1211.7
2014-Jul-25 17:34N 51°25' E 003°58'1111.1
2014-Jul-25 16:34N 51°21' E 004°15'4 3.7
2014-Jul-25 15:33N 51°17' E 004°16'0 0.0
2014-Jul-25 14:33N 51°17' E 004°16'0 0.0
2014-Jul-25 13:33N 51°17' E 004°16'0 0.0
2014-Jul-25 12:33N 51°17' E 004°16'0 0.0
2014-Jul-25 11:33N 51°17' E 004°16'0 0.0
2014-Jul-25 10:33N 51°17' E 004°16'0 0.0
2014-Jul-25 09:33N 51°18' E 004°16'0 0.0
2014-Jul-25 08:33N 51°17' E 004°16'0 0.0
2014-Jul-25 07:33N 51°17' E 004°16'0 0.0
2014-Jul-25 06:33N 51°17' E 004°16'0 0.0
2014-Jul-25 05:33N 51°17' E 004°16'0 0.0
2014-Jul-25 04:33N 51°17' E 004°16'0 0.0
2014-Jul-25 03:33N 51°17' E 004°16'3 2.5
2014-Jul-25 02:34N 51°20' E 004°16'1 1.0
2014-Jul-25 01:34N 51°21' E 004°17'1 0.7
2014-Jul-25 00:34N 51°20' E 004°18'2 1.6
2014-Jul-24 23:31N 51°20' E 004°20'0 0.0
2014-Jul-24 22:31N 51°20' E 004°20'0 0.0
2014-Jul-24 21:31N 51°20' E 004°20'0 0.0
2014-Jul-24 20:31N 51°20' E 004°20'0 0.0
2014-Jul-24 19:31N 51°20' E 004°20'0 0.0
2014-Jul-24 18:31N 51°20' E 004°20'0 0.0
2014-Jul-24 17:28N 51°20' E 004°20'0 0.0
2014-Jul-24 16:31N 51°20' E 004°20'0 0.0
2014-Jul-24 15:31N 51°20' E 004°20'0 0.0
2014-Jul-24 14:31N 51°20' E 004°20'0 0.0
2014-Jul-24 13:31N 51°20' E 004°20'0 0.0
2014-Jul-24 12:31N 51°20' E 004°20'0 0.0
2014-Jul-24 11:31N 51°20' E 004°20'0 0.0
2014-Jul-24 10:31N 51°20' E 004°20'0 0.0
2014-Jul-24 09:28N 51°20' E 004°20'0 0.0
2014-Jul-24 08:31N 51°20' E 004°20'0 0.0
2014-Jul-24 07:31N 51°20' E 004°20'0 0.0
2014-Jul-24 06:31N 51°20' E 004°20'0 0.1
2014-Jul-24 05:34N 51°20' E 004°20'2 2.3
2014-Jul-24 04:34N 51°21' E 004°17'1 1.1
2014-Jul-24 03:34N 51°21' E 004°15'8 8.2
2014-Jul-24 02:34N 51°23' E 004°03'8 7.7
2014-Jul-24 01:34N 51°21' E 003°51'1211.6
2014-Jul-24 00:33N 51°26' E 003°34'1313.3
2014-Jul-23 23:33N 51°24' E 003°13'8 7.7
2014-Jul-23 22:33N 51°30' E 003°05'1414.0
2014-Jul-23 21:34N 51°43' E 003°13'1414.1
2014-Jul-23 20:33N 51°57' E 003°19'2120.8
2014-Jul-23 19:33N 52°17' E 003°24'2121.0
2014-Jul-23 18:33N 52°38' E 003°32'2121.0
2014-Jul-23 17:33N 52°54' E 003°54'2020.0
2014-Jul-23 16:33N 53°07' E 004°19'1918.8
2014-Jul-23 15:33N 53°24' E 004°34'1818.0
2014-Jul-23 14:33N 53°33' E 005°01'2019.7
2014-Jul-23 13:33N 53°39' E 005°32'2120.8
2014-Jul-23 12:33N 53°46' E 006°05'2121.1
2014-Jul-23 11:33N 53°52' E 006°39'2120.8
2014-Jul-23 10:33N 53°58' E 007°13'2020.3
2014-Jul-23 09:33N 54°01' E 007°47'1717.4
2014-Jul-23 08:33N 54°00' E 008°17'1515.1
2014-Jul-23 07:34N 53°55' E 008°41'1211.7
2014-Jul-23 06:33N 53°51' E 008°60'1211.8
2014-Jul-23 05:33N 53°51' E 009°20'1515.5
2014-Jul-23 04:34N 53°37' E 009°33'1111.4
2014-Jul-23 03:33N 53°33' E 009°50'3 2.5
2014-Jul-23 02:29N 53°32' E 009°55'0 0.0
2014-Jul-23 01:29N 53°32' E 009°55'0 0.0
2014-Jul-23 00:32N 53°32' E 009°55'0 0.0
2014-Jul-22 23:32N 53°32' E 009°55'0 0.0
2014-Jul-22 22:32N 53°32' E 009°55'0 0.0
2014-Jul-22 21:32N 53°32' E 009°55'0 0.0
2014-Jul-22 20:29N 53°32' E 009°55'0 0.0
2014-Jul-22 19:29N 53°32' E 009°55'0 0.0
2014-Jul-22 18:32N 53°32' E 009°55'0 0.0
2014-Jul-22 17:32N 53°32' E 009°55'0 0.0
2014-Jul-22 16:32N 53°32' E 009°55'0 0.0
2014-Jul-22 15:29N 53°32' E 009°55'0 0.0
2014-Jul-22 14:32N 53°32' E 009°55'0 0.0
2014-Jul-22 13:29N 53°32' E 009°55'0 0.0
2014-Jul-22 12:29N 53°32' E 009°55'0 0.0
2014-Jul-22 11:32N 53°32' E 009°55'0 0.0
2014-Jul-22 10:29N 53°32' E 009°55'0 0.0
2014-Jul-22 09:32N 53°32' E 009°55'0 0.0
2014-Jul-22 08:32N 53°32' E 009°55'0 0.0
2014-Jul-22 07:32N 53°32' E 009°55'0 0.0
2014-Jul-22 06:29N 53°32' E 009°55'0 0.0
2014-Jul-22 05:23N 53°32' E 009°55'0 0.0
2014-Jul-22 04:32N 53°32' E 009°55'0 0.0
2014-Jul-22 03:29N 53°32' E 009°55'0 0.0
2014-Jul-22 02:32N 53°32' E 009°55'0 0.0
2014-Jul-22 01:32N 53°32' E 009°55'0 0.0
2014-Jul-22 00:30N 53°32' E 009°55'3 3.6
2014-Jul-21 23:34N 53°33' E 009°49'9 8.8
2014-Jul-21 22:33N 53°36' E 009°35'1211.8
2014-Jul-21 21:33N 53°46' E 009°24'1212.3
2014-Jul-21 20:33N 53°53' E 009°06'415.8
2014-Jul-21 20:18N 53°51' E 009°00'1115.0
2014-Jul-21 19:33N 53°54' E 008°42'1615.5
2014-Jul-21 18:33N 53°59' E 008°17'1716.5
2014-Jul-21 17:33N 53°58' E 007°49'2019.6
2014-Jul-21 16:33N 53°53' E 007°17'2020.0
2014-Jul-21 15:32N 53°49' E 006°43'2020.1
2014-Jul-21 14:33N 53°44' E 006°11'2020.2
2014-Jul-21 13:33N 53°37' E 005°38'2020.3
2014-Jul-21 12:33N 53°31' E 005°06'2020.0
2014-Jul-21 11:33N 53°19' E 004°39'2120.5
2014-Jul-21 10:33N 53°01' E 004°23'2020.1
2014-Jul-21 09:33N 52°44' E 004°07'1919.6
2014-Jul-21 08:34N 52°26' E 003°53'1919.3
2014-Jul-21 07:33N 52°07' E 003°55'1110.8
2014-Jul-21 06:33N 51°58' E 004°05'1 0.9
2014-Jul-21 05:32N 51°58' E 004°04'0 0.0
2014-Jul-21 04:29N 51°58' E 004°04'0 0.0
2014-Jul-21 03:32N 51°58' E 004°04'0 0.0
2014-Jul-21 02:32N 51°58' E 004°04'0 0.0
2014-Jul-21 01:32N 51°58' E 004°04'0 0.0
2014-Jul-21 00:32N 51°58' E 004°04'0 0.0
2014-Jul-20 23:29N 51°58' E 004°04'0 0.0
2014-Jul-20 22:29N 51°58' E 004°04'0 0.0
2014-Jul-20 21:29N 51°58' E 004°04'  
Track history (hours):
 
Tides and Currents Weather Stations Pressure Air Temp Water Temp Dewpoint Dewpoint Depression Visibility Wind Speed Wind Dir Waves Ship Positions

MSC Fortunate

Last reported at 2014-Jul-30 21:05 UTC. Time now 2014-Jul-31 01:19 UTC.
Position N 37°12' E 004°32'.

Length 275 m; draft 13.3 m.

Type: Ship. MMSI: 356708000.

Date/timePositionNaut miles runAvg speedWind from/ knotsBaromVisibWave heightAir tempDewpointWater temp
2014-Jul-30 21:05N 37°12' E 004°32'1317.8
2014-Jul-30 20:23N 37°10' E 004°16'1517.9
2014-Jul-30 19:33N 37°08' E 003°58'1818.0
2014-Jul-30 18:32N 37°05' E 003°35'1817.8
2014-Jul-30 17:33N 37°03' E 003°13'1818.3
2014-Jul-30 16:33N 36°60' E 002°50'1817.8
2014-Jul-30 15:33N 36°57' E 002°28'1717.5
2014-Jul-30 14:33N 36°55' E 002°07'1817.6
2014-Jul-30 13:33N 36°52' E 001°45'1817.7
2014-Jul-30 12:33N 36°49' E 001°23'2317.8
2014-Jul-30 11:16N 36°46' E 000°55'3017.4
2014-Jul-30 09:32N 36°41' E 000°18'1817.5
2014-Jul-30 08:31N 36°38' W 000°04'25618.1
2014-Jul-29 18:24N 35°59' W 005°18'14618.1
2014-Jul-29 10:20N 36°21' W 008°17'1417.6
2014-Jul-29 09:33N 36°24' W 008°33'1817.4
2014-Jul-29 08:33N 36°28' W 008°54'1717.4
2014-Jul-29 07:33N 36°33' W 009°15'2017.9
2014-Jul-29 06:28N 36°47' W 009°32'1618.0
2014-Jul-29 05:34N 37°02' W 009°37'1818.1
2014-Jul-29 04:33N 37°20' W 009°42'1918.2
2014-Jul-29 03:32N 37°38' W 009°48'1817.9
2014-Jul-29 02:33N 37°55' W 009°52'1817.7
2014-Jul-29 01:33N 38°13' W 009°57'1917.8
2014-Jul-29 00:29N 38°31' W 010°02'1617.6
2014-Jul-28 23:34N 38°47' W 010°06'76316.1
2014-Jul-27 00:15N 49°54' W 001°28'1420.2
2014-Jul-26 23:33N 49°48' W 001°08'1818.5
2014-Jul-26 22:33N 49°40' W 000°42'1717.3
2014-Jul-26 21:34N 49°34' W 000°17'1414.3
2014-Jul-26 20:34N 49°29' E 000°04'3 3.3
2014-Jul-26 19:31N 49°28' E 000°08'0 0.0
2014-Jul-26 18:34N 49°28' E 000°08'0 0.0
2014-Jul-26 17:34N 49°28' E 000°08'0 0.0
2014-Jul-26 16:28N 49°28' E 000°08'0 0.0
2014-Jul-26 15:34N 49°28' E 000°08'0 0.0
2014-Jul-26 14:31N 49°28' E 000°08'0 0.0
2014-Jul-26 13:34N 49°28' E 000°08'0 0.0
2014-Jul-26 12:34N 49°28' E 000°08'0 0.0
2014-Jul-26 11:28N 49°28' E 000°08'0 0.0
2014-Jul-26 10:33N 49°28' E 000°08'0 0.2
2014-Jul-26 09:34N 49°28' E 000°08'9 9.3
2014-Jul-26 08:33N 49°31' W 000°05'9 9.4
2014-Jul-26 07:33N 49°35' W 000°18'1312.8
2014-Jul-26 06:33N 49°48' W 000°22'4914.8
2014-Jul-26 03:14N 50°31' E 000°16'1419.9
2014-Jul-26 02:33N 50°35' E 000°36'1919.1
2014-Jul-26 01:33N 50°46' E 001°01'1817.6
2014-Jul-26 00:33N 50°58' E 001°22'1615.9
2014-Jul-25 23:33N 51°09' E 001°40'1716.8
2014-Jul-25 22:34N 51°22' E 001°57'1615.8
2014-Jul-25 21:33N 51°22' E 002°22'1616.4
2014-Jul-25 20:33N 51°25' E 002°48'1716.8
2014-Jul-25 19:33N 51°25' E 003°15'1515.5
2014-Jul-25 18:34N 51°27' E 003°39'1211.7
2014-Jul-25 17:34N 51°25' E 003°58'1111.1
2014-Jul-25 16:34N 51°21' E 004°15'4 3.7
2014-Jul-25 15:33N 51°17' E 004°16'0 0.0
2014-Jul-25 14:33N 51°17' E 004°16'0 0.0
2014-Jul-25 13:33N 51°17' E 004°16'0 0.0
2014-Jul-25 12:33N 51°17' E 004°16'0 0.0
2014-Jul-25 11:33N 51°17' E 004°16'0 0.0
2014-Jul-25 10:33N 51°17' E 004°16'0 0.0
2014-Jul-25 09:33N 51°18' E 004°16'0 0.0
2014-Jul-25 08:33N 51°17' E 004°16'0 0.0
2014-Jul-25 07:33N 51°17' E 004°16'0 0.0
2014-Jul-25 06:33N 51°17' E 004°16'0 0.0
2014-Jul-25 05:33N 51°17' E 004°16'0 0.0
2014-Jul-25 04:33N 51°17' E 004°16'0 0.0
2014-Jul-25 03:33N 51°17' E 004°16'3 2.5
2014-Jul-25 02:34N 51°20' E 004°16'1 1.0
2014-Jul-25 01:34N 51°21' E 004°17'1 0.7
2014-Jul-25 00:34N 51°20' E 004°18'2 1.6
2014-Jul-24 23:31N 51°20' E 004°20'0 0.0
2014-Jul-24 22:31N 51°20' E 004°20'0 0.0
2014-Jul-24 21:31N 51°20' E 004°20'0 0.0
2014-Jul-24 20:31N 51°20' E 004°20'0 0.0
2014-Jul-24 19:31N 51°20' E 004°20'0 0.0
2014-Jul-24 18:31N 51°20' E 004°20'0 0.0
2014-Jul-24 17:28N 51°20' E 004°20'0 0.0
2014-Jul-24 16:31N 51°20' E 004°20'0 0.0
2014-Jul-24 15:31N 51°20' E 004°20'0 0.0
2014-Jul-24 14:31N 51°20' E 004°20'0 0.0
2014-Jul-24 13:31N 51°20' E 004°20'0 0.0
2014-Jul-24 12:31N 51°20' E 004°20'0 0.0
2014-Jul-24 11:31N 51°20' E 004°20'0 0.0
2014-Jul-24 10:31N 51°20' E 004°20'0 0.0
2014-Jul-24 09:28N 51°20' E 004°20'0 0.0
2014-Jul-24 08:31N 51°20' E 004°20'0 0.0
2014-Jul-24 07:31N 51°20' E 004°20'0 0.0
2014-Jul-24 06:31N 51°20' E 004°20'0 0.1
2014-Jul-24 05:34N 51°20' E 004°20'2 2.3
2014-Jul-24 04:34N 51°21' E 004°17'1 1.1
2014-Jul-24 03:34N 51°21' E 004°15'8 8.2
2014-Jul-24 02:34N 51°23' E 004°03'8 7.7
2014-Jul-24 01:34N 51°21' E 003°51'1211.6
2014-Jul-24 00:33N 51°26' E 003°34'1313.3
2014-Jul-23 23:33N 51°24' E 003°13'8 7.7
2014-Jul-23 22:33N 51°30' E 003°05'1414.0
2014-Jul-23 21:34N 51°43' E 003°13'1414.1
2014-Jul-23 20:33N 51°57' E 003°19'2120.8
2014-Jul-23 19:33N 52°17' E 003°24'2121.0
2014-Jul-23 18:33N 52°38' E 003°32'2121.0
2014-Jul-23 17:33N 52°54' E 003°54'2020.0
2014-Jul-23 16:33N 53°07' E 004°19'1918.8
2014-Jul-23 15:33N 53°24' E 004°34'1818.0
2014-Jul-23 14:33N 53°33' E 005°01'2019.7
2014-Jul-23 13:33N 53°39' E 005°32'2120.8
2014-Jul-23 12:33N 53°46' E 006°05'2121.1
2014-Jul-23 11:33N 53°52' E 006°39'2120.8
2014-Jul-23 10:33N 53°58' E 007°13'2020.3
2014-Jul-23 09:33N 54°01' E 007°47'1717.4
2014-Jul-23 08:33N 54°00' E 008°17'1515.1
2014-Jul-23 07:34N 53°55' E 008°41'1211.7
2014-Jul-23 06:33N 53°51' E 008°60'1211.8
2014-Jul-23 05:33N 53°51' E 009°20'1515.5
2014-Jul-23 04:34N 53°37' E 009°33'1111.4
2014-Jul-23 03:33N 53°33' E 009°50'3 2.5
2014-Jul-23 02:29N 53°32' E 009°55'0 0.0
2014-Jul-23 01:29N 53°32' E 009°55'0 0.0
2014-Jul-23 00:32N 53°32' E 009°55'0 0.0
2014-Jul-22 23:32N 53°32' E 009°55'0 0.0
2014-Jul-22 22:32N 53°32' E 009°55'0 0.0
2014-Jul-22 21:32N 53°32' E 009°55'0 0.0
2014-Jul-22 20:29N 53°32' E 009°55'0 0.0
2014-Jul-22 19:29N 53°32' E 009°55'0 0.0
2014-Jul-22 18:32N 53°32' E 009°55'0 0.0
2014-Jul-22 17:32N 53°32' E 009°55'0 0.0
2014-Jul-22 16:32N 53°32' E 009°55'0 0.0
2014-Jul-22 15:29N 53°32' E 009°55'0 0.0
2014-Jul-22 14:32N 53°32' E 009°55'0 0.0
2014-Jul-22 13:29N 53°32' E 009°55'0 0.0
2014-Jul-22 12:29N 53°32' E 009°55'0 0.0
2014-Jul-22 11:32N 53°32' E 009°55'0 0.0
2014-Jul-22 10:29N 53°32' E 009°55'0 0.0
2014-Jul-22 09:32N 53°32' E 009°55'0 0.0
2014-Jul-22 08:32N 53°32' E 009°55'0 0.0
2014-Jul-22 07:32N 53°32' E 009°55'0 0.0
2014-Jul-22 06:29N 53°32' E 009°55'0 0.0
2014-Jul-22 05:23N 53°32' E 009°55'0 0.0
2014-Jul-22 04:32N 53°32' E 009°55'0 0.0
2014-Jul-22 03:29N 53°32' E 009°55'0 0.0
2014-Jul-22 02:32N 53°32' E 009°55'0 0.0
2014-Jul-22 01:32N 53°32' E 009°55'0 0.0
2014-Jul-22 00:30N 53°32' E 009°55'3 3.6
2014-Jul-21 23:34N 53°33' E 009°49'9 8.8
2014-Jul-21 22:33N 53°36' E 009°35'1211.8
2014-Jul-21 21:33N 53°46' E 009°24'1212.3
2014-Jul-21 20:33N 53°53' E 009°06'415.8
2014-Jul-21 20:18N 53°51' E 009°00'1115.0
2014-Jul-21 19:33N 53°54' E 008°42'1615.5
2014-Jul-21 18:33N 53°59' E 008°17'1716.5
2014-Jul-21 17:33N 53°58' E 007°49'2019.6
2014-Jul-21 16:33N 53°53' E 007°17'2020.0
2014-Jul-21 15:32N 53°49' E 006°43'2020.1
2014-Jul-21 14:33N 53°44' E 006°11'2020.2
2014-Jul-21 13:33N 53°37' E 005°38'2020.3
2014-Jul-21 12:33N 53°31' E 005°06'2020.0
2014-Jul-21 11:33N 53°19' E 004°39'2120.5
2014-Jul-21 10:33N 53°01' E 004°23'2020.1
2014-Jul-21 09:33N 52°44' E 004°07'1919.6
2014-Jul-21 08:34N 52°26' E 003°53'1919.3
2014-Jul-21 07:33N 52°07' E 003°55'1110.8
2014-Jul-21 06:33N 51°58' E 004°05'1 0.9
2014-Jul-21 05:32N 51°58' E 004°04'0 0.0
2014-Jul-21 04:29N 51°58' E 004°04'0 0.0
2014-Jul-21 03:32N 51°58' E 004°04'0 0.0
2014-Jul-21 02:32N 51°58' E 004°04'0 0.0
2014-Jul-21 01:32N 51°58' E 004°04'0 0.0
2014-Jul-21 00:32N 51°58' E 004°04'0 0.0
2014-Jul-20 23:29N 51°58' E 004°04'0 0.0
2014-Jul-20 22:29N 51°58' E 004°04'0 0.0
2014-Jul-20 21:29N 51°58' E 004°04'  

Dump ship's entire track history